Tracking 26218 objects as of 26-Sep-2022
HD Live streaming from Space Station
objects crossing your sky now

USA 324

Track USA 324 now!


NORAD ID: 51280
Int'l Code: 2022-006A
Perigee: 35,784.1 km
Apogee: 35,809.1 km
Inclination: 0.2 °
Period: 1,436.2 minutes
Semi major axis: 42167 km
RCS: Unknown
Launch date: January 21, 2022
Source: United States (US)
Launch site: AIR FORCE EASTERN TEST RANGE (AFETR)
aabbcc
Your satellite tracking list
Your tracking list is empty




NASA's NSSDC Master Catalog

Two Line Element Set (TLE):
1 51280U 22006A   22262.36854686 -.00000077  00000-0  00000+0 0  9990
2 51280   0.1575  81.8858 0002966  82.7459 317.7964  1.00261549  2403
Source of the keplerian elements: McCants